Flag for Germany Weather past 2 weeks in Hennef (Sieg), North Rhine-Westphalia, Germany

Now
68 °F

Overcast.


Feels Like: 68 °F
Forecast: 57 / 68 °F
Wind: 8 mph from West

Location: Bonn-Hangelar

Current Time: Jul 7, 2015 at 9:55:46 PM

Latest Report: Jul 7, 2015 at 9:00 PM


Visibility: 25 mi

Pressure: 29.77 "Hg

Humidity: 70%

Dew point: 58 °F

Location of Hennef (Sieg)Location

Historic Weather in Hennef (Sieg) — Graph

°F

Hennef (Sieg) temperature yesterday

Maximum temperature yesterday: 75 °F (at 6:00 PM)
Minimum temperature yesterday: 55 °F (at 5:00 AM)
Average temperature yesterday: 66 °F

Past Weeks' High & Low Weather Summary

 TemperatureHumidityPressure
High94 °F (Jul 2, 4:00 PM)100% (Jun 22, 11:00 PM)30.26 "Hg (Jun 22, 11:00 PM)
Low47 °F (Jun 23, 1:00 AM)32% (Jun 30, 7:00 PM)29.73 "Hg (Jun 22, 9:00 PM)
Average68 °F69%30.08 "Hg
* Reported Jun 22 9:00 PM — Jul 7 9:00 PM, Hennef (Sieg), Weather by CustomWeather, © 2015

Note: Actual official high and low records may vary slightly from our data, if they occured in-between our weather recording intervals... More about our weather records

Advertising

Hennef (Sieg) weather history for previous 24 hours

 ConditionsComfort  
Time TempWeatherWind HumidityBarometerVisibility
9:00 PM
Tue, Jul 7
68 °FOvercast.8 mph70%29.77 "Hg25 mi
8:00 PM70 °FOvercast.9 mph67%29.77 "Hg17 mi
7:00 PM74 °FOvercast.6 mph62%29.75 "Hg28 mi
6:00 PM74 °FOvercast.5 mph59%29.77 "Hg34 mi
5:00 PM74 °FOvercast.6 mph62%29.79 "Hg22 mi
4:00 PM74 °FOvercast.2 mph65%29.78 "Hg25 mi
3:00 PM81 °FOvercast.6 mph50%29.77 "Hg25 mi
2:00 PM80 °FOvercast.7 mph53%29.79 "Hg22 mi
1:00 PM82 °FOvercast.6 mph46%29.79 "Hg22 mi
12:00 PM80 °FOvercast.3 mph52%29.81 "Hg37 mi
11:00 AM81 °FOvercast.5 mph48%29.82 "Hg28 mi
10:00 AM77 °FOvercast.3 mph52%29.85 "Hg43 mi
9:00 AM76 °FPassing clouds.6 mph50%29.87 "Hg11 mi
8:00 AM72 °FSunny.3 mph56%29.90 "Hg17 mi
7:00 AM66 °FSunny.5 mph61%29.92 "Hg11 mi
6:00 AM62 °FSunny.5 mph66%29.94 "Hg37 mi
5:00 AM60 °FClear.2 mph75%29.96 "Hg31 mi
4:00 AM59 °FClear.5 mph81%29.98 "Hg31 mi
3:00 AM60 °FClear.5 mph79%30.01 "Hg28 mi
2:00 AM60 °FClear.5 mph80%30.02 "Hg28 mi
1:00 AM60 °FClear.3 mph82%30.05 "Hg25 mi
12:00 AM60 °FClear.3 mph83%30.06 "Hg28 mi
11:00 PM
Mon, Jul 6
64 °FClear.2 mph72%30.06 "Hg34 mi
10:00 PM69 °FClear.1 mph55%30.06 "Hg43 mi
9:00 PM73 °FSunny.1 mph52%30.06 "Hg43 mi
Weather by CustomWeather, © 2015

See weather overviewHow to use our weather pages